Location: Bachas
(43.2439°N, 0.9375°E)
Time: 18:02:54
(UTC+00:00)

Cosmos 2173 Rocket - Pass Details

Date: 18 February 2020
Orbit: 944 x 1001 km, 83.0° (Epoch: 31 March)

Event Time Altitude Azimuth Distance (km) Brightness Sun altitude
Rises 05:06:01 0° 353° (N) 3,714 7.0 -19.7°
Reaches altitude 10° 05:08:35 10° 356° (N) 2,754 6.3 -19.3°
Maximum altitude 05:14:54 73° 81° (E) 1,023 4.2 -18.1°
Drops below altitude 10° 05:21:04 10° 166° (SSE) 2,696 6.5 -17.0°
Sets 05:23:33 0° 168° (SSE) 3,630 7.2 -16.5°
